OV1-5 DEB

Satellite information

Favourite Embed

Satellite Type and Status

DEBRISIN ORBIT

Key statistics

Satellite OV1-5 DEB at a glance.

Uptime

21589

Days in orbit

Revolutions

≈ 14.7

Per day

Orbit

SSO

Sun Synchronous Orbit

Inclination

144.6

Latest

Satellite identification and parameters

Extended collection of information and parameters for OV1-5 DEB.

Object identification

Identified? True

Debris? True

Object name: OV1-5 DEB

International designator: 1966-025G

Object number (NORAD): 5599

Object ID (CCSDS): 5599

Country: UNITED STATES OF AMERICA (US)

Current information (Y/N): Y

RCS size: SMALL

Orbital parameters

Period: 97.799 minutes

Inclination: 144.6207 deg

SMA: 7031.512 km

Apoapsis: 674.696 km

Periapsis: 632.058 km

RAAN: 309.4475 deg

Eccentricy: 0.0030319

Argument of periapsis: 99.9901 deg

Mean anomaly: 260.4227 deg

Mean motion: 14.72413194 rev/day

Mean motion (dot): 0.00017129 rev/day2

B* drag term: 0.0025605 1/REarth

Two-line elements (TLE)

Creation date: May 8, 2025, 3:01 a.m.

Reference frame: TEME

Reference center: EARTH

Epoch: May 7, 2025, 8:05 a.m. UTC

TLE line 0: 0 OV1-5 DEB

TLE line 1: 1 05599U 66025G 25127.33736732 .00017129 00000-0 25605-2 0 9998

TLE line 2: 2 05599 144.6207 309.4475 0030319 99.9901 260.4227 14.72413194 44231

Live tracking on map

Real-time ground track for satellite OV1-5 DEB.

In-orbit conjunctions

A list of the most updated potential collisions computed for object OV1-5 DEB.

Target Orbit TCA Probability of collision Miss distance Type
CZ-6A DEB SSO 2024-11-10 21:26:02 0.0001155706 528.0 (m) DEBRIS

Associated space launch

The OV1 (Orbiting Vehicle 1) were small research satellite to be launched piggy back on Atlas ICBM test flights. They consisted in general of the OV1 satellite and the OV1-PM propulsion module (or upper stage) to reach orbit.

OV1-5 DEB was lifted into orbit during the mission ‘Atlas D | OV1-4 & 5’, on board a Atlas D space rocket.

The launch took place on March 30, 1966, 9:20 a.m. from 576B3.

For more information about the launch, click the button.

Launch to space Atlas D | OV1-4 & 5
Atlas D | OV1-4 & 5

Agency: N/A

Status: Launch Successful

Launch date: March 30, 1966, 9:20 a.m. UTC

Rocket: Atlas D

Launch pad: 576B3

Location: Vandenberg SFB, CA, USA

...

Latest news about this satellite

There are no fresh news available about this satellite. Check back as we update our databases every day.


Newsletter sign-up

Weekly statistics, charts and insights to help you stay on top of the space industry.